User: anonymous   Login
Location: SAPM � Hemmingford
(45.0500°N, 73.5833°W)
Time: 15:36:58
(UTC-05:00)
Language:

Iridium 75 - Orbit

View from above orbital plane
View from above orbital plane
View from above satellite
View from above satellite

Ground track
Ground track

The orbit data is extracted from the following two-line orbital elements,

1 25346U 98032E   17058.53584181  .00000025  00000-0  19803-5 0  9991
2 25346  86.3926 269.9427 0002054  87.4460 329.7356 14.34217765983954
Epoch (UTC): 27 February 2017 12:51:36
Eccentricity: 0.0002054
inclination: 86.3926°
perigee height: 776 km
apogee height: 779 km
right ascension of ascending node: 269.9427°
argument of perigee: 87.4460°
revolutions per day: 14.34217765
mean anomaly at epoch: 329.7356°
orbit number at epoch: 98395

The dashed part of the orbit path shows where the satellite is in the earth's shadow,  

DLR